Weather History for McAllen, TX

Change the Weather History Date:

Thursday, February 7, 2013

  Actual Average Record
Temperature  
Mean Temperature 75 °F 63 °F  
Max Temperature 84 °F 74 °F 88 °F (1948)
Min Temperature 66 °F 53 °F 30 °F (1926)
Degree Days  
Heating Degree Days 0 5  
Month to date heating degree days 0 35  
Since 1 July heating degree days 269 462  
Cooling Degree Days 10 3  
Month to date cooling degree days 54 19  
Year to date cooling degree days 142 81  
Growing Degree Days 24 (Base 50)    
Moisture  
Dew Point 64 °F    
Average Humidity 72    
Maximum Humidity 93    
Minimum Humidity 51    
Precipitation  
Precipitation 0.00 in 0.04 in 0.64 in (2012)
Month to date precipitation 0.01 0.31  
Year to date precipitation 0.99 1.36  
Sea Level Pressure  
Sea Level Pressure 29.91 in    
Wind  
Wind Speed 5 mph (NNE)    
Max Wind Speed 12 mph    
Max Gust Speed 14 mph    
Visibility 9 miles    
Events      
T = Trace of Precipitation, MM = Missing Value Source: NWS Daily Summary

Daily Weather History Graph

Daily Weather History Graph

Search for Another Location

Airport:

Trip Planner

Search our weather history database for the weather conditions in past years. The results will help you decide how hot, cold, wet, or windy it might be!

Date:

Astronomy

Feb. 07, 2013 Rise Set
Actual Time 7:13 AM CST 6:20 PM CST
Civil Twilight 6:49 AM CST 6:44 PM CST
Nautical Twilight 6:22 AM CST 7:11 PM CST
Astronomical Twilight 5:55 AM CST 7:39 PM CST
Moon 4:46 AM CST (2/7) 3:54 PM CST (2/7)
Length of Visible Light 11h 54m
Length of Day
11h 06m
Waning Crescent, 9% of the Moon is Illuminated
Feb 7
Waning Crescent
Feb 10
New
Feb 17
First Quarter
Feb 25
Full
Mar 4
Last Quarter

Hourly Weather History & Observations

Time (CST) Temp. Heat Index Dew Point Humidity Pressure Visibility Wind Dir Wind Speed Gust Speed Precip Events Conditions
12:53 AM 69.1 °F - 63.0 °F 81% 29.88 in 10.0 mi NNE 4.6 mph - N/A   Overcast
1:53 AM 69.1 °F - 63.0 °F 81% 29.88 in 10.0 mi North 5.8 mph - N/A   Mostly Cloudy
2:16 AM 68.0 °F - 62.6 °F 83% 29.88 in 10.0 mi North 3.5 mph - N/A   Mostly Cloudy
2:43 AM 66.2 °F - 62.6 °F 88% 29.87 in 10.0 mi North 6.9 mph - N/A   Scattered Clouds
2:53 AM 66.9 °F - 63.0 °F 87% 29.86 in 10.0 mi North 6.9 mph - N/A   Clear
3:45 AM 66.2 °F - 62.6 °F 88% 29.87 in 10.0 mi NNE 5.8 mph - N/A   Scattered Clouds
3:53 AM 66.9 °F - 63.0 °F 87% 29.87 in 10.0 mi North 8.1 mph - N/A   Mostly Cloudy
4:53 AM 66.9 °F - 63.0 °F 87% 29.87 in 10.0 mi NE 4.6 mph - N/A   Overcast
5:20 AM 68.0 °F - 64.4 °F 88% 29.87 in 10.0 mi Calm Calm - N/A   Overcast
5:51 AM 66.2 °F - 62.6 °F 88% 29.88 in 10.0 mi Calm Calm - N/A   Overcast
5:53 AM 66.9 °F - 63.0 °F 87% 29.87 in 10.0 mi Calm Calm - N/A   Overcast
6:06 AM 66.2 °F - 64.4 °F 94% 29.88 in 10.0 mi Calm Calm - N/A   Overcast
6:53 AM 66.9 °F - 64.0 °F 90% 29.89 in 10.0 mi NNW 3.5 mph - N/A   Overcast
7:53 AM 68.0 °F - 64.0 °F 87% 29.91 in 5.0 mi Calm Calm - N/A   Overcast
8:53 AM 68.0 °F - 64.9 °F 90% 29.93 in 5.0 mi North 5.8 mph - N/A   Overcast
9:01 AM 69.8 °F - 64.4 °F 83% 29.94 in 6.0 mi NNE 4.6 mph - N/A   Overcast
9:26 AM 69.8 °F - 64.4 °F 83% 29.94 in 7.0 mi North 4.6 mph - N/A   Overcast
9:53 AM 70.0 °F - 64.9 °F 84% 29.95 in 7.0 mi NW 4.6 mph - N/A   Overcast
10:53 AM 73.0 °F - 66.0 °F 79% 29.96 in 8.0 mi North 3.5 mph - N/A   Overcast
11:53 AM 75.0 °F - 66.0 °F 73% 29.96 in 9.0 mi Calm Calm - N/A   Overcast
12:53 PM 78.1 °F - 66.0 °F 66% 29.93 in 9.0 mi Calm Calm - N/A   Overcast
1:53 PM 79.0 °F - 64.0 °F 60% 29.90 in 10.0 mi SSE 3.5 mph - N/A   Scattered Clouds
2:53 PM 82.0 °F 83.4 °F 64.0 °F 54% 29.88 in 10.0 mi North 5.8 mph - N/A   Mostly Cloudy
3:53 PM 82.9 °F 84.0 °F 63.0 °F 51% 29.87 in 10.0 mi NNE 6.9 mph - N/A   Clear
4:53 PM 82.9 °F 84.4 °F 64.0 °F 53% 29.88 in 10.0 mi NNE 4.6 mph - N/A   Partly Cloudy
5:53 PM 81.0 °F 82.2 °F 63.0 °F 54% 29.88 in 10.0 mi NE 5.8 mph - N/A   Clear
6:53 PM 78.1 °F - 64.0 °F 62% 29.91 in 10.0 mi North 10.4 mph - N/A   Partly Cloudy
7:53 PM 75.9 °F - 64.0 °F 67% 29.94 in 10.0 mi NNE 8.1 mph - N/A   Mostly Cloudy
8:20 PM 75.2 °F - 64.4 °F 69% 29.96 in 10.0 mi NNE 6.9 mph - N/A   Mostly Cloudy
8:53 PM 75.0 °F - 64.9 °F 71% 29.98 in 10.0 mi East 5.8 mph - N/A   Overcast
9:11 PM 73.4 °F - 64.4 °F 73% 29.98 in 10.0 mi East 6.9 mph - N/A   Scattered Clouds
9:53 PM 71.1 °F - 64.0 °F 78% 29.99 in 10.0 mi ESE 9.2 mph - N/A   Clear
10:53 PM 69.1 °F - 64.0 °F 84% 29.99 in 9.0 mi Calm Calm - N/A   Clear
11:53 PM 68.0 °F - 64.0 °F 87% 29.99 in 9.0 mi Calm Calm - N/A   Clear